Location: Boda
(47.1872°N, 9.5454°E)
Time: 18:33:36
(UTC+00:00)

CZ-4C R/B - Pass Details

Date: 14 May 2021
Orbit: 462 x 634 km, 98.0° (Epoch: 15 June)

Event Time Altitude Azimuth Distance (km) Brightness Sun altitude
Exits shadow 02:07:10 - 169° (S) 2,067 5.9 -14.0°
Reaches altitude 10° 02:07:25 10° 170° (S) 1,967 5.8 -14.0°
Maximum altitude 02:11:43 78° 257° (WSW) 614 3.4 -13.5°
Drops below altitude 10° 02:15:50 10° 344° (NNW) 1,894 6.5 -13.0°
Sets 02:17:57 0° 346° (NNW) 2,768 7.4 -12.8°
